Location: Monfort
(47.1967°N, 0.2115°W)
Time: 11:59:16
(UTC+00:00)

SL-4 R/B - Pass Details

Date: 24 October 2020
Orbit: 427 x 665 km, 51.6° (Epoch: 27 November)

Event Time Altitude Azimuth Distance (km) Brightness Sun altitude
Rises 19:39:18 0° 289° (WNW) 2,478 6.6 -28.2°
Reaches altitude 10° 19:41:26 10° 296° (WNW) 1,634 5.3 -28.5°
Enters shadow 19:43:03 24° 308° (NW) 1,049 4.0 -28.8°
